Location: Poughquag
(41.6090°N, 73.6820°W)
Time: 14:52:31
(UTC-04:00)

Vanguard 2 - Pass Details

Date: 29 May 2020
Orbit: 552 x 2938 km, 32.9° (Epoch: 06 July)

Event Time Altitude Azimuth Distance (km) Brightness Sun altitude
Rises 19:26:13 0° 226° (SW) 6,140 12.5 8.3°
Reaches altitude 10° 19:31:20 10° 218° (SW) 4,768 11.8 7.4°
Maximum altitude 19:41:41 31° 164° (SSE) 2,534 9.9 5.6°
Drops below altitude 10° 19:48:34 10° 105° (ESE) 3,124 10.0 4.5°
Sets 19:51:10 0° 94° (E) 3,809 10.5 4.0°
